Location: Morlupo
(42.1333°N, 12.5000°E)
Time: 15:59:00
(UTC+00:00)

OBJECT-B - Pass Details

Date: 18 September 2020
Orbit: 421 x 433 km, 97.0° (Epoch: 09 October)

Event Time Altitude Azimuth Distance (km) Brightness Sun altitude
Exits shadow 19:01:25 27° 22° (NNE) 862 2.3 -20.3°
Drops below altitude 10° 19:03:11 10° 3° (N) 1,518 3.8 -20.6°
Sets 19:05:15 0° 356° (N) 2,390 4.9 -20.9°
